Weather History for LKPD - September, 2013

Change the Weather History Date:

Friday, September 6, 2013

  Actual Average Record
Temperature  
Mean Temperature 64 °F -  
Max Temperature 77 °F - - ()
Min Temperature 50 °F - - ()
Degree Days  
Heating Degree Days 2    
Growing Degree Days 14 (Base 50)    
Moisture  
Dew Point 49 °F    
Average Humidity 62    
Maximum Humidity 94    
Minimum Humidity 36    
Precipitation  
Precipitation 0.00 in - - ()
Sea Level Pressure  
Sea Level Pressure 30.03 in    
Wind  
Wind Speed 5 mph ()    
Max Wind Speed 13 mph    
Max Gust Speed -    
T = Trace of Precipitation, MM = Missing Value Source: Averaged Metar Reports

Daily Weather History Graph

Daily Weather History Graph

Search for Another Location

Airport or City:

Trip Planner

Search our weather history database for the weather conditions in past years. The results will help you decide how hot, cold, wet, or windy it might be!

Date:

Astronomy

Sep. 06, 2013 Rise Set
Actual Time 6:19 AM CEST 7:30 PM CEST
Civil Twilight 5:46 AM CEST 8:03 PM CEST
Nautical Twilight 5:06 AM CEST 8:43 PM CEST
Astronomical Twilight 4:22 AM CEST 9:26 PM CEST
Moon 7:24 AM CEST 7:31 PM CEST
Length of Visible Light 14h 17m
Length of Day
13h 10m
New Moon, 1% of the Moon is Illuminated
Sep 6
New Moon
Sep 12
First Quarter
Sep 19
Full
Sep 27
Last Quarter
Oct 5
New

Hourly Weather History & Observations

Time (CEST) Temp. Dew Point Humidity Pressure Visibility Wind Dir Wind Speed Gust Speed Precip Events Conditions
12:00 AM 59.0 °F 53.6 °F 82% 30.06 in - ESE 5.8 mph - N/A   Clear
1:00 AM 59.0 °F 53.6 °F 82% 30.06 in - East 3.5 mph - N/A   Clear
2:00 AM 59.0 °F 53.6 °F 82% 30.06 in - Variable 2.3 mph - N/A   Clear
3:00 AM 55.4 °F 51.8 °F 88% 30.04 in - ESE 3.5 mph - N/A   Clear
4:00 AM 51.8 °F 50.0 °F 94% 30.04 in - SE 2.3 mph - N/A   Clear
5:00 AM 55.4 °F 51.8 °F 88% 30.04 in - Calm Calm - N/A   Clear
6:00 AM 51.8 °F 48.2 °F 88% 30.04 in - Calm Calm - N/A   Clear
7:00 AM 50.0 °F 48.2 °F 94% 30.04 in - SE 1.2 mph - N/A   Clear
8:00 AM 57.2 °F 50.0 °F 77% 30.04 in - Variable 1.2 mph - N/A   Clear
9:00 AM 60.8 °F 51.8 °F 72% 30.04 in - East 5.8 mph - N/A   Clear
10:00 AM 66.2 °F 46.4 °F 49% 30.04 in - ESE 9.2 mph - N/A   Clear
11:00 AM 69.8 °F 46.4 °F 43% 30.04 in - ESE 12.7 mph - N/A   Clear
12:00 PM 71.6 °F 46.4 °F 41% 30.04 in - ESE 10.4 mph - N/A   Clear
1:00 PM 73.4 °F 48.2 °F 41% 30.01 in - ESE 10.4 mph - N/A   Clear
2:00 PM 75.2 °F 48.2 °F 38% 30.01 in - East 10.4 mph - N/A   Clear
3:00 PM 77.0 °F 48.2 °F 36% 30.01 in - ESE 10.4 mph - N/A   Clear
4:00 PM 77.0 °F 48.2 °F 36% 30.01 in - East 12.7 mph - N/A   Clear
5:00 PM 75.2 °F 50.0 °F 41% 29.98 in - East 11.5 mph - N/A   Clear
6:00 PM 73.4 °F 48.2 °F 41% 29.98 in - ESE 11.5 mph - N/A   Clear
7:00 PM 71.6 °F 48.2 °F 43% 29.98 in - East 9.2 mph - N/A   Clear
8:00 PM 66.2 °F 48.2 °F 52% 30.01 in - ESE 6.9 mph - N/A   Clear
9:00 PM 64.4 °F 48.2 °F 56% 30.01 in - ESE 2.3 mph - N/A   Clear
10:00 PM 60.8 °F 50.0 °F 68% 30.04 in - ESE 8.1 mph - N/A   Clear
11:00 PM 60.8 °F 48.2 °F 63% 30.04 in - ESE 9.2 mph - N/A   Clear